sat.trackr.live / text

‹ back to catalog

STARLINK-6217

NORAD 57058 · 2023-088L

PAYLOAD ACTIVE UNKNOWN

§ Identity

Operator
Country
US
Launch date
2023-06-22
Launch site
AFWTR
Launch vehicle
Mass (kg)
RCS (m²)

Purposes: comms

External: N2YO · Heavens-Above · Gunter

§ Orbital elements

Epoch: 2026-05-25T02:33:50.357376Z

Period
94.27 min
Inclination
43.0059°
Eccentricity
0.0001579
Mean motion
15.27573985 rev/d
Perigee alt
482.0 km
Apogee alt
484.2 km
Semi-major
6,861.2 km
B*
6.3845e-5
RAAN
38.7418°
Arg perigee
268.7368°
Mean anomaly
91.3303°
Rev number
16,202

§ Raw data

STARLINK-62171 57058U 23088L   26145.10683284  .00001495  00000+0  63845-4 0  99942 57058  43.0059  38.7418 0001579 268.7368  91.3303 15.27573985162023

JSON: /api/v1/satellites/57058 · /tle

For live sub-satellite position, see the globe view (requires WebGL).

§ Visibility from observer

Set your observer location to see the next 7 days of passes ≥ 10°. The values pass through the URL so the page stays shareable.

No JS? Fill the form by hand. The geolocation button needs JavaScript.